EDT,Max TemperatureF,Mean TemperatureF,Min TemperatureF,Max Dew PointF,MeanDew PointF,Min DewpointF,Max Humidity, Mean Humidity, Min Humidity, Max Sea Level PressureIn, Mean Sea Level PressureIn, Min Sea Level PressureIn, Max VisibilityMiles, Mean VisibilityMiles, Min VisibilityMiles, Max Wind SpeedMPH, Mean Wind SpeedMPH, Max Gust SpeedMPH,PrecipitationIn, CloudCover, Events, WindDirDegrees
2012-10-1,74,67,60,72,63,57,100,89,78,29.90,29.86,29.83,10,6,2,10,5,13,0.28,8,Rain,64
2012-10-2,89,81,73,77,74,70,100,76,52,29.98,29.85,29.79,10,8,1,17,7,21,0.28,6,Rain-Thunderstorm,157
2012-10-3,88,81,74,75,73,65,100,73,46,30.17,30.06,29.98,10,9,7,13,6,16,0.00,5,,202
2012-10-4,79,73,66,71,67,65,93,79,64,30.23,30.18,30.14,10,10,9,12,5,16,0.01,4,Rain,256
2012-10-5,82,71,60,65,61,54,100,70,39,30.16,30.10,30.01,10,9,6,9,3,10,0.01,0,,332
2012-10-6,86,73,60,65,61,57,100,70,40,30.01,29.94,29.86,10,8,2,16,6,21,0.00,0,,224
2012-10-7,71,63,55,65,55,50,86,75,63,30.13,30.01,29.94,10,10,10,18,10,24,0.00,5,,9
2012-10-8,55,53,50,52,49,46,96,87,77,30.19,30.13,30.08,10,6,1,18,10,22,1.37,8,Rain,16
2012-10-9,58,54,50,54,52,49,96,88,80,30.14,30.10,30.07,10,8,2,13,6,17,0.01,8,,347
2012-10-10,72,62,51,55,52,50,93,70,47,30.10,30.06,29.98,10,8,2,14,7,18,0.00,3,,254
2012-10-11,70,58,46,50,45,40,89,62,35,30.29,30.21,30.11,10,10,10,15,4,21,0.00,0,,14
2012-10-12,76,61,45,51,47,43,93,62,31,30.30,30.20,30.15,10,10,9,12,4,16,0.00,0,,336
2012-10-13,71,58,45,51,46,42,89,65,40,30.44,30.37,30.32,10,10,10,13,6,20,0.00,0,,38
2012-10-14,80,63,46,60,53,45,100,73,45,30.31,30.19,30.03,10,9,5,10,4,17,0.00,1,,145
2012-10-15,82,70,58,69,62,49,100,79,58,30.01,29.83,29.72,10,9,2,22,7,29,0.23,4,Rain-Thunderstorm,223
2012-10-16,72,62,51,48,44,40,89,60,31,29.95,29.89,29.84,10,10,10,17,5,24,0.00,0,,339
2012-10-17,70,58,45,52,48,44,100,71,42,30.01,29.95,29.92,10,10,8,9,3,14,0.00,0,,129
2012-10-18,80,64,48,66,58,47,100,79,58,29.92,29.85,29.78,10,9,5,17,6,22,0.00,3,,140
2012-10-19,80,67,54,66,57,39,100,63,26,29.80,29.76,29.70,10,8,2,21,8,29,0.12,2,Rain,218
2012-10-20,74,61,47,49,44,39,93,61,29,29.93,29.82,29.77,10,10,10,15,7,21,0.00,0,,255
2012-10-21,70,59,47,47,42,37,93,62,31,30.14,30.07,29.96,10,10,9,15,5,18,0.00,0,,5
2012-10-22,77,59,41,51,46,40,96,65,33,30.22,30.16,30.13,10,9,4,8,2,12,0.00,0,,321
2012-10-23,80,64,47,53,49,46,93,63,32,30.20,30.15,30.10,10,10,9,9,4,13,0.00,0,,225
2012-10-24,82,66,49,59,53,47,100,67,33,30.21,30.15,30.08,10,8,0,8,2,13,0.00,0,Fog,206
2012-10-25,83,67,51,61,57,51,100,72,43,30.15,30.10,30.06,10,9,4,10,3,15,0.00,0,,46
2012-10-26,72,64,55,63,59,54,100,84,68,30.10,30.01,29.87,10,6,0,18,12,23,0.00,4,Fog,17
2012-10-27,68,66,64,63,60,56,87,78,68,29.85,29.71,29.62,10,10,10,26,19,35,0.00,7,,16
2012-10-28,67,62,56,55,51,48,75,64,52,29.61,29.56,29.53,10,10,10,25,16,33,0.00,6,,353
2012-10-29,56,51,45,48,40,36,72,61,50,29.57,29.49,29.39,10,10,10,25,17,37,0.04,7,Rain,298
2012-10-30,55,49,42,36,33,30,65,54,43,29.63,29.48,29.36,10,10,10,29,14,36,T,7,Rain,256
2012-10-31,60,50,39,40,35,33,79,58,37,29.78,29.70,29.64,10,10,10,17,7,23,0.00,4,,253